x

8454000 - Providence, Ri (foxr1) Weather Station

8:18 - Sat 22nd Jul 2017 All times are EDT. -4 hours from GMT.

  • Wind
    3mph, 6mph gusts
  • Sea Temp 71°f
  • Luft Temp 78°f
  • Sea Pressure 1010.9mb
  • 8454000 - Providence, Ri
  • 8454000 - Providence, Ri

More Historic Weather Station data

Upgrade to MSW Pro to gain access to the past 30 days of data for over 8000 Wavebouys and Weather Stations around the globe.

Join Pro

Comparision Forecast

View Surf forecast
   
Sa 07/22 8:18 3 6 mph 1010.9mb 71f 78f
8:12 3 6 mph 1010.9mb 71f 77f
8:06 5 7 mph 1010.9mb 70f 77f
8:00 6 9 mph 1010.8mb 70f 77f
7:54 5 8 mph 1010.7mb 70f 77f
7:48 6 8 mph 1010.8mb 70f 76f
7:42 6 9 mph 1010.8mb 70f 76f
7:36 7 9 mph 1010.7mb 70f 76f
7:30 5 7 mph 1010.7mb 70f 75f
7:24 6 7 mph 1010.7mb 70f 75f
7:18 3 5 mph 1010.6mb 70f 75f
7:12 2 6 mph 1010.6mb 70f 75f
7:06 2 5 mph 1010.6mb 70f 75f
7:00 2 6 mph 1010.5mb 71f 75f
6:54 6 9 mph 1010.4mb 71f 74f
6:48 7 9 mph - - -
6:42 7 9 mph 1010.3mb 71f 73f
6:36 7 9 mph 1010.2mb 71f 73f
6:30 7 9 mph 1010.1mb 71f 73f
6:24 6 8 mph 1010.1mb 71f 73f
6:18 7 8 mph 1010mb 71f 73f
6:12 6 9 mph 1010mb 71f 73f
6:06 6 9 mph 1009.9mb 71f 73f
6:00 6 9 mph 1009.8mb 71f 73f
5:54 5 7 mph 1009.8mb 71f 73f
5:48 6 8 mph 1009.6mb 71f 73f
5:42 7 9 mph 1009.7mb 71f 73f
5:36 7 10 mph 1009.6mb 71f 73f
5:30 6 8 mph 1009.5mb 71f 73f
5:24 7 11 mph 1009.5mb 71f 73f
5:18 8 10 mph 1009.5mb 71f 73f
5:12 7 10 mph 1009.5mb 71f 73f
5:06 7 9 mph 1009.5mb 71f 73f
5:00 7 10 mph 1009.5mb 71f 73f
4:54 6 9 mph 1009.5mb 71f 74f
4:48 8 10 mph 1009.4mb 71f 74f
4:42 8 11 mph 1009.5mb 71f 74f
4:36 8 10 mph 1009.4mb 71f 75f
4:30 7 11 mph 1009.4mb 71f 75f
4:24 8 11 mph 1009.4mb 71f 75f
4:18 8 11 mph 1009.4mb 72f 76f
4:12 6 9 mph 1009.4mb 72f 76f
4:06 9 11 mph 1009.4mb 72f 76f
4:00 6 11 mph 1009.5mb 73f 76f
3:54 5 8 mph 1009.5mb 73f 76f
3:48 7 11 mph 1009.6mb 73f 76f
3:42 6 13 mph 1009.6mb 73f 77f
3:36 7 9 mph 1009.6mb 73f 77f
3:30 7 13 mph 1009.7mb 73f 77f
3:24 8 11 mph 1009.7mb 73f 77f
3:18 5 9 mph 1009.7mb 73f 77f
3:12 7 8 mph 1009.7mb 73f 77f
3:06 6 9 mph 1009.8mb 73f 77f
3:00 6 8 mph 1009.9mb 73f 77f
2:54 3 6 mph 1009.9mb 73f 77f
2:48 3 7 mph - - -
2:42 5 7 mph 1010mb 73f 77f
2:36 2 7 mph 1010.1mb 73f 78f
2:30 5 7 mph 1010mb 73f 78f
2:24 6 8 mph 1009.9mb 73f 78f
2:18 5 8 mph 1009.9mb 73f 78f
2:12 5 7 mph 1009.9mb 73f 78f
2:06 6 7 mph 1009.9mb 73f 78f
2:00 5 7 mph 1010mb 73f 78f
1:54 3 6 mph 1009.9mb 73f 78f
1:48 3 5 mph 1009.9mb 73f 78f
1:42 3 7 mph 1009.9mb 73f -
1:36 2 6 mph 1009.8mb 73f -
1:30 3 6 mph 1009.8mb 73f 78f
1:24 5 6 mph 1009.7mb 73f 78f
1:18 2 5 mph 1009.7mb 73f 78f
1:12 1 6 mph 1009.7mb 73f 78f
1:06 5 6 mph 1009.7mb 73f 78f
1:00 5 8 mph 1009.7mb 73f 78f
12:54 6 8 mph 1009.7mb 73f 78f
12:48 5 7 mph 1009.7mb 73f 78f
12:42 6 8 mph 1009.7mb 73f 78f
12:36 5 8 mph 1009.8mb 73f 78f
12:30 6 8 mph 1009.8mb 72f 79f
12:24 5 7 mph 1009.8mb 72f 79f
12:18 5 6 mph 1009.8mb 72f 79f
12:12 5 6 mph 1009.8mb 72f 79f
12:06 5 6 mph 1009.8mb 72f 79f
12:00 3 6 mph 1009.8mb 72f 79f
Fr 07/21 11:54 3 5 mph 1009.9mb 72f 79f
11:48 3 6 mph 1009.9mb 72f 80f
11:42 3 6 mph 1009.9mb 72f 80f
11:36 5 6 mph 1009.9mb 72f 80f
11:30 3 5 mph 1009.8mb 72f 80f
11:24 3 6 mph 1009.7mb 72f 80f
11:18 2 6 mph - - -
11:12 3 7 mph 1009.5mb 72f 81f
11:06 2 7 mph 1009.6mb 72f 81f
11:00 5 7 mph 1009.5mb 72f 81f
10:54 5 6 mph 1009.5mb 72f 81f
10:48 5 8 mph 1009.4mb 72f 81f
10:42 5 6 mph 1009.3mb 72f 81f
10:36 5 6 mph 1009.2mb 72f 81f
10:30 3 7 mph 1009.4mb 72f 82f
10:24 5 6 mph 1009.3mb 71f 82f
10:18 5 6 mph 1009.4mb - -
10:12 5 6 mph 1009.3mb 71f 82f
10:06 3 5 mph 1009.3mb 71f 82f
10:00 5 7 mph 1009.4mb 71f 82f
9:54 5 6 mph 1009.3mb 71f 83f
9:48 5 6 mph 1009.3mb 71f 83f
9:42 3 7 mph 1009.2mb 71f 83f
9:36 5 6 mph 1009.2mb 71f 83f
9:30 5 7 mph 1009.2mb 71f 83f
9:24 5 8 mph 1009.2mb 71f 83f
9:18 6 8 mph 1009.1mb - -
9:12 6 9 mph 1009mb 71f 83f
9:06 7 9 mph 1009mb 71f 83f
9:00 7 8 mph 1009.1mb 71f 84f
8:54 6 11 mph 1009mb 71f 84f
8:48 8 9 mph 1009mb 71f 84f
8:42 7 8 mph 1009.1mb 71f 85f
8:36 5 8 mph 1009.1mb 71f 85f
8:30 6 8 mph 1009mb 71f 85f
8:24 6 8 mph 1008.9mb 71f 85f
8:18 6 8 mph 1008.9mb 71f 86f
8:12 5 7 mph 1008.8mb 70f 86f
8:06 7 11 mph 1008.8mb 70f 86f
8:00 8 11 mph 1008.8mb 70f 86f
7:48 8 13 mph 1008.7mb 70f 87f
7:42 11 14 mph 1008.8mb 70f 87f
7:36 6 13 mph 1008.6mb 70f 87f
7:30 10 14 mph 1008.6mb 70f 88f
7:24 9 15 mph 1008.7mb 70f 87f
7:18 10 15 mph 1008.6mb 70f 88f
7:12 6 16 mph 1008.5mb 70f 88f
7:06 8 15 mph 1008.5mb 70f 88f
7:00 10 15 mph 1008.3mb 70f 88f
6:54 10 14 mph 1008.3mb 70f 89f
6:48 8 13 mph 1008.4mb 70f 89f
6:42 8 15 mph 1008.3mb 70f 88f
6:36 8 15 mph 1008.4mb 70f 89f
6:30 7 14 mph 1008.3mb 70f 89f
6:24 10 17 mph 1008.3mb 70f 89f
6:18 11 15 mph 1008.2mb 71f 89f
6:12 9 14 mph 1008.2mb 72f 89f
6:06 9 15 mph 1008.1mb 71f 89f
6:00 14 17 mph 1008.2mb 71f 89f
5:48 13 16 mph 1008.3mb 71f 89f
5:42 11 20 mph 1008.3mb 71f 89f
5:36 11 18 mph 1008.3mb 71f 89f
5:30 11 17 mph 1008.4mb 71f 89f
5:24 8 17 mph 1008.4mb 71f 89f
5:18 15 20 mph 1008.4mb 71f 89f
5:12 9 14 mph 1008.4mb 71f 89f
5:06 14 17 mph 1008.4mb 71f 89f
5:00 14 17 mph 1008.3mb 71f 89f
4:54 10 18 mph 1008.4mb 71f 90f
4:48 10 18 mph 1008.4mb 71f 89f
4:42 11 16 mph 1008.3mb 71f 89f
4:36 13 21 mph 1008.4mb 71f 89f
4:30 8 13 mph 1008.3mb 71f 89f
4:24 9 15 mph 1008.3mb 71f 89f
4:18 9 13 mph 1008.2mb 71f 89f
4:12 10 15 mph 1008.2mb 71f 89f
4:06 9 15 mph 1008.2mb 71f 89f
4:00 11 14 mph 1008.1mb 71f 89f
3:54 8 14 mph 1008.2mb 71f 89f
3:48 9 16 mph 1008.2mb 71f 90f
3:42 8 11 mph 1008.2mb 71f 90f
3:36 9 16 mph 1008.3mb 71f 89f
3:30 10 15 mph 1008.4mb 71f 90f
3:24 9 14 mph 1008.4mb 71f 90f
3:18 7 17 mph 1008.4mb 71f 90f
3:12 11 15 mph 1008.4mb 72f 90f
3:06 11 15 mph 1008.5mb 72f 89f
3:00 6 13 mph 1008.5mb 72f 89f
2:54 9 17 mph 1008.4mb 72f 90f
2:48 6 16 mph 1008.4mb 72f 90f
2:42 7 13 mph 1008.5mb 72f 90f
2:36 2 9 mph 1008.7mb 72f 90f
2:30 6 10 mph 1008.7mb 72f 89f
2:24 6 14 mph 1008.7mb 72f 89f
2:18 7 13 mph 1008.7mb 72f 90f
2:12 9 16 mph 1009mb 72f 89f
2:06 8 13 mph 1009mb 72f 89f
2:00 9 15 mph 1009.1mb 72f 89f
1:54 9 16 mph 1009mb 73f 88f
1:48 5 10 mph 1009.1mb 73f 87f
1:42 9 14 mph 1009.3mb 73f 87f
1:36 10 14 mph 1009.3mb 73f 88f
1:30 10 15 mph 1009.5mb 73f 88f
1:24 7 17 mph 1009.6mb 73f 88f
1:18 7 13 mph 1009.7mb 73f 88f
1:12 7 15 mph 1009.7mb 73f 87f
1:06 11 16 mph 1009.7mb 73f 88f
1:00 6 13 mph 1009.7mb 73f 87f
12:54 8 13 mph 1009.7mb 73f 87f
12:48 3 13 mph 1009.7mb 74f 87f
12:42 7 11 mph 1009.7mb 74f 87f
12:36 5 11 mph 1009.8mb 74f 86f
12:30 5 13 mph 1009.8mb 74f 86f
12:24 6 9 mph 1009.9mb 74f 86f
12:18 7 11 mph 1010mb 74f 85f
12:12 8 13 mph 1010.1mb 73f 85f
12:06 6 14 mph 1010.1mb 73f 85f
12:00 3 10 mph 1010.1mb 73f 85f
11:54 8 14 mph 1010.2mb 73f 84f
11:48 2 10 mph 1010.2mb 73f 85f
11:42 7 15 mph 1010.3mb 73f 85f
11:36 8 15 mph 1010.3mb 73f 85f
11:30 5 8 mph 1010.3mb 73f 85f
11:24 3 10 mph 1010.4mb 73f 84f
11:18 2 13 mph 1010.4mb 73f 83f
11:12 9 14 mph 1010.5mb 73f 84f
11:06 7 13 mph 1010.5mb 73f 84f
11:00 2 10 mph 1010.5mb 73f 83f
10:54 3 11 mph 1010.5mb 73f 83f
10:48 9 13 mph 1010.6mb 73f 83f
10:42 8 11 mph 1010.6mb 73f 83f
10:36 3 13 mph 1010.6mb 73f 82f
10:30 8 13 mph 1010.7mb 73f 83f
10:24 6 11 mph 1010.7mb 73f 82f
10:18 10 11 mph 1010.8mb 73f 82f
10:12 9 13 mph 1010.9mb 73f 81f
10:06 7 10 mph 1010.7mb 73f 82f
10:00 6 10 mph 1010.6mb 73f 82f
9:54 9 10 mph 1010.7mb 72f 81f
9:48 7 14 mph 1010.6mb 72f 81f
9:42 6 13 mph 1010.7mb 72f 81f
9:36 10 14 mph 1010.8mb 72f 80f
9:30 7 10 mph 1010.7mb 72f 81f
9:24 6 11 mph 1010.7mb 72f 80f
9:18 8 11 mph 1010.7mb 72f 80f
9:12 6 11 mph 1010.5mb 72f 80f
9:06 6 10 mph 1010.5mb 72f 80f
9:00 8 11 mph 1010.5mb 72f 79f
8:54 5 10 mph 1010.5mb 72f 80f
8:48 11 15 mph 1010.6mb 71f 79f
8:42 10 14 mph 1010.7mb 71f 79f
8:36 8 14 mph 1010.6mb 71f 79f
8:30 7 14 mph 1010.5mb 71f 79f
8:24 5 15 mph 1010.6mb 71f 79f
8:18 10 14 mph 1010.5mb 71f 79f
8:12 7 10 mph 1010.4mb 71f 79f
8:06 6 14 mph 1010.6mb 71f 78f
8:00 8 13 mph 1010.6mb 71f 78f
7:54 7 15 mph 1010.7mb 71f 78f
7:48 7 13 mph 1010.6mb 71f 78f
7:42 7 15 mph 1010.5mb 71f 77f
7:36 8 11 mph 1010.4mb 71f 77f
7:30 6 13 mph 1010.4mb 71f 77f
7:24 7 14 mph 1010.4mb 71f 77f
7:18 8 10 mph 1010.3mb 71f 76f
7:12 8 10 mph 1010.3mb 71f 76f
7:06 7 11 mph 1010.4mb 71f 76f
7:00 9 13 mph 1010.3mb 71f 76f
6:54 7 10 mph 1010.1mb 71f 76f
6:48 7 10 mph 1010mb 71f 76f
6:42 7 9 mph 1010mb 71f 76f
6:36 3 8 mph 1009.9mb 71f 76f
6:30 6 9 mph 1009.9mb 71f 76f
6:24 7 9 mph 1009.9mb 71f 75f
6:18 6 8 mph 1009.8mb 71f 75f
6:12 6 10 mph 1009.9mb 71f 75f
6:06 7 8 mph 1009.8mb 71f 74f
6:00 6 8 mph 1009.8mb 71f 74f
5:54 2 7 mph 1009.8mb 71f 74f
5:48 6 8 mph 1009.8mb 71f 74f
5:42 6 7 mph 1009.9mb 71f 74f
5:36 5 9 mph 1009.8mb 71f 74f
5:30 6 9 mph 1009.7mb 71f 74f
5:24 7 9 mph 1009.8mb 71f 74f
5:18 6 7 mph 1009.8mb 71f 74f
5:12 6 9 mph 1009.7mb 71f 74f
5:06 8 9 mph 1009.6mb 71f 74f
5:00 7 10 mph 1009.6mb 71f 74f
4:54 6 11 mph 1009.6mb 71f 74f
4:48 7 10 mph 1009.6mb 71f 74f
4:42 7 13 mph 1009.5mb 71f 74f
4:36 9 11 mph 1009.5mb 71f 74f
4:30 7 10 mph 1009.5mb 71f 74f
4:24 8 13 mph 1009.5mb 71f 74f
4:18 6 9 mph 1009.4mb 71f 75f
4:12 6 9 mph 1009.4mb 71f 75f
4:06 7 9 mph 1009.4mb 71f 75f
4:00 5 8 mph 1009.3mb 71f 76f
3:54 5 6 mph 1009.2mb 71f 76f
3:48 6 7 mph 1009.3mb 71f 75f
3:42 6 10 mph 1009.2mb 71f 75f
3:36 7 9 mph 1009.2mb 72f 75f
3:30 6 8 mph 1009.2mb 72f 75f
3:24 6 9 mph 1009.2mb 73f 75f
3:18 7 8 mph 1009.2mb 73f 75f
3:12 6 7 mph 1009.2mb 73f 75f
3:06 3 7 mph 1009.2mb 73f 75f
3:00 3 6 mph 1009.2mb 73f 75f
2:54 5 8 mph 1009.2mb 74f 75f
2:48 7 9 mph 1009.1mb 74f -
2:42 5 7 mph 1009.1mb 74f -
2:36 3 7 mph 1009.1mb 74f -
2:30 6 7 mph 1009.1mb 74f 76f
2:24 5 6 mph 1009.1mb 74f 76f
2:18 5 6 mph 1009.1mb 74f 76f
2:12 3 5 mph 1009.2mb 74f 76f
2:06 3 5 mph 1009.2mb 74f 76f
2:00 3 6 mph 1009.2mb 74f 76f
1:54 6 7 mph 1009.2mb 74f 76f
1:48 5 7 mph 1009.2mb - -
1:42 5 8 mph 1009.3mb - -
1:36 6 8 mph 1009.2mb - -
1:30 7 8 mph 1009.2mb 74f 77f
1:24 6 8 mph 1009.2mb 74f 77f
1:18 6 7 mph 1009.2mb 74f 78f
1:12 5 6 mph 1009.2mb 74f 78f
1:06 3 6 mph 1009.2mb 74f 78f
1:00 6 6 mph 1009.3mb 74f 78f
12:54 5 6 mph 1009.3mb 74f 79f
12:48 5 5 mph 1009.3mb 74f 79f
12:42 3 8 mph 1009.3mb 74f 80f
12:36 5 7 mph 1009.3mb 74f 80f
12:30 6 8 mph 1009.3mb 74f 80f
12:24 5 8 mph 1009.2mb 74f 79f
12:18 6 9 mph 1009.1mb 73f 79f
12:12 9 14 mph 1009.2mb 73f 79f
12:06 9 11 mph 1009.3mb 73f 79f
12:00 7 9 mph 1009.4mb 73f 79f
Do 07/20 11:54 6 8 mph 1009.5mb 73f 79f
11:48 5 7 mph 1009.6mb 73f 79f
11:42 5 8 mph 1009.7mb 73f 79f
11:36 6 8 mph 1009.8mb 73f 79f
11:30 5 6 mph 1009.7mb 73f 79f
11:24 3 5 mph 1009.7mb 73f 79f
11:18 3 5 mph 1009.7mb 73f 80f
11:12 5 8 mph 1009.8mb 73f 80f
11:06 5 6 mph 1009.8mb 73f 80f
11:00  -  5 mph 1009.6mb 73f 80f
10:54 3 11 mph 1009.4mb 73f 80f
10:48 7 11 mph 1009.6mb 73f 80f
10:42 6 8 mph 1009.6mb 73f 80f
10:36 3 6 mph 1009.6mb 73f 80f
10:30 3 6 mph 1009.6mb 73f 80f
10:24 5 5 mph 1009.6mb 73f 80f
10:18 2 8 mph - - -
10:12 5 7 mph 1009.5mb 73f 81f
10:06 3 5 mph 1009.5mb 73f 81f
10:00 3 6 mph 1009.6mb 72f 81f
9:54 3 7 mph 1009.6mb 72f 81f
9:48 3 5 mph 1009.6mb 72f 81f
9:42 3 6 mph 1009.5mb 72f 81f
9:36 3 7 mph 1009.6mb 72f 81f
9:30 3 7 mph 1009.5mb 72f 81f
9:24 3 6 mph 1009.6mb 72f 81f
9:18 5 8 mph 1009.6mb - -
9:12 3 7 mph 1009.6mb 72f 82f
9:06 6 9 mph 1009.7mb 72f 82f
9:00 5 8 mph 1009.9mb 72f 82f
8:54 7 9 mph 1009.7mb 72f 82f
8:48 7 10 mph 1009.6mb 71f 82f
8:42 9 11 mph 1009.8mb 71f 82f
8:36 6 9 mph 1009.7mb 71f 83f
8:30 6 10 mph 1009.6mb 71f 82f
8:24 7 9 mph 1009.5mb 71f 82f
8:18 8 10 mph 1009.4mb 71f 82f
8:12 7 10 mph 1009.3mb 71f 83f
8:06 7 10 mph 1009.4mb 71f 82f
8:00 8 10 mph 1009.3mb 71f 82f
7:54 5 8 mph 1009.4mb 71f 83f
7:48 5 8 mph 1009.4mb 71f 82f
7:42 5 9 mph 1009.3mb 71f 82f
7:36 6 9 mph 1009.3mb 71f 82f
7:30 6 8 mph 1009.3mb 71f 82f
7:24 7 9 mph 1009.5mb 71f 83f
7:18 6 9 mph 1009.6mb 71f 83f
7:12 6 9 mph 1009.7mb 71f 82f
7:06 7 9 mph 1009.7mb 71f 82f
7:00 7 8 mph 1009.7mb 71f 82f
6:54 7 10 mph 1009.5mb 71f 82f
6:48 7 10 mph 1009.7mb 71f 82f
6:42 8 10 mph 1009.6mb 71f 82f
6:36 9 15 mph 1009.7mb 71f 82f
6:30 9 13 mph 1009.7mb 70f 81f
6:24 11 16 mph 1009.7mb 70f 82f
6:18 10 16 mph 1009.7mb 70f 82f
6:12 8 16 mph 1009.9mb 70f 81f
6:06 13 20 mph 1010.1mb 70f 82f
6:00 8 13 mph 1009.9mb 71f 84f
5:54 5 21 mph 1009.6mb 71f 82f
5:48 16 21 mph 1009.8mb 71f 85f
5:42 11 13 mph 1009.6mb 71f 89f
5:36 10 17 mph 1009.7mb 71f 89f
5:30 14 18 mph 1009.7mb 71f 89f
5:24 11 15 mph 1009.7mb 71f 90f
5:18 9 18 mph 1009.8mb 71f 91f
5:12 10 18 mph 1009.8mb 71f 90f
5:06 14 18 mph 1009.8mb 71f 90f
5:00 8 14 mph 1009.9mb 71f 91f
4:54 10 16 mph 1009.9mb 71f 91f
4:48 13 20 mph 1009.9mb 71f 92f
4:42 7 17 mph 1009.9mb 71f 92f
4:36 11 16 mph 1009.9mb 71f 92f
4:30 11 18 mph 1010.1mb 71f 91f
4:24 10 17 mph 1010.1mb 71f 92f
4:18 10 15 mph 1010.2mb 71f 91f
4:12 11 16 mph 1010.2mb 71f 91f
4:06 10 15 mph 1010.3mb 71f 91f
4:00 11 16 mph 1010.3mb 71f 91f
3:54 11 16 mph 1010.2mb 71f 91f
3:48 10 16 mph 1010.2mb 71f 92f
3:42 13 18 mph 1010.2mb 71f 91f
3:36 10 16 mph 1010.2mb 71f 93f
3:30 11 15 mph 1010.2mb 71f 91f
3:24 10 17 mph 1010.1mb 71f 91f
3:18 13 18 mph 1010.2mb 71f 91f
3:12 11 16 mph 1010.3mb 72f 92f
3:06 13 15 mph 1010.4mb 71f 91f
3:00 7 13 mph 1010.5mb 71f 92f
2:54 9 16 mph 1010.7mb 71f 91f
2:48 14 17 mph 1010.8mb 72f 92f
2:42 9 17 mph 1010.8mb 72f 92f
2:36 8 15 mph 1011mb 72f 91f
2:30 11 17 mph 1011mb 72f 92f
2:24 10 16 mph 1011mb 72f 92f
2:18 9 18 mph 1011.1mb 72f 92f
2:12 13 16 mph 1011.1mb 72f 92f
2:06 13 15 mph 1011.3mb 72f 92f
2:00 14 17 mph 1011.2mb 72f 92f
1:54 7 13 mph 1011.3mb 72f 92f
1:48 14 18 mph 1011.4mb 72f 91f
1:42 9 14 mph 1011.4mb 72f 91f
1:36 11 17 mph 1011.5mb 72f 91f
1:30 14 22 mph 1011.6mb 72f 91f
1:24 11 16 mph 1011.7mb 72f 91f
1:18 10 13 mph 1011.8mb 73f 91f
1:12 13 16 mph 1011.9mb 73f 91f
1:06 11 17 mph 1012mb 73f 91f
1:00 10 17 mph 1012.1mb 73f 91f
12:54 11 15 mph 1012.3mb 73f 91f
12:48 5 15 mph 1012.3mb 73f 91f
12:42 8 14 mph 1012.4mb 73f 91f
12:36 11 16 mph 1012.5mb 73f 91f
12:30 10 16 mph 1012.7mb 74f 90f
12:24 10 16 mph 1012.8mb 74f 90f
12:18 9 16 mph 1012.9mb 74f 90f
12:12 8 10 mph 1012.9mb 74f 90f
12:06 6 11 mph 1013mb 74f 90f
12:00 8 14 mph 1012.9mb 74f 90f
11:54 13 15 mph 1012.9mb 74f 90f
11:48 8 14 mph 1013mb 74f 89f
11:42 6 11 mph 1012.9mb 74f 89f
11:36 8 13 mph 1012.9mb 74f 88f
11:30 7 14 mph 1013mb 74f 88f
11:24 8 13 mph 1013mb 74f 88f
11:18 6 13 mph 1013.2mb 74f 88f
11:12 5 9 mph 1013.2mb 74f 88f
11:06 9 13 mph 1013.3mb 74f 88f
11:00 5 10 mph 1013.3mb 74f 87f
10:54 6 9 mph 1013.2mb 74f 87f
10:48 3 9 mph 1013.3mb 74f 87f
10:42 5 10 mph 1013.3mb 74f 87f
10:36 5 8 mph 1013.4mb 74f 87f
10:30 6 11 mph 1013.5mb 74f 86f
10:24 7 10 mph 1013.5mb 74f 86f
10:18 3 9 mph 1013.4mb 74f 86f
10:12 7 10 mph 1013.5mb 74f 86f
10:06 2 8 mph 1013.5mb 74f 85f
10:00 2 5 mph 1013.6mb 74f 85f
9:54 2 6 mph 1013.6mb 74f 81f
9:48 2 8 mph 1013.6mb 74f 83f
9:42 3 6 mph 1013.6mb 74f 81f
9:36 3 6 mph 1013.5mb 74f 80f
9:30 5 6 mph 1013.5mb 74f 79f
9:24 3 5 mph 1013.5mb 74f 80f
9:18 2 5 mph 1013.6mb 73f 83f
9:12 5 6 mph 1013.6mb 73f 85f
9:06 5 7 mph 1013.6mb 73f 85f
9:00 5 8 mph 1013.8mb 73f 84f
8:54 5 6 mph 1013.8mb 73f 85f
8:48  -  5 mph 1013.8mb 73f 85f
8:42 2 5 mph 1013.8mb 73f 84f
8:36 5 8 mph 1013.9mb 73f 83f
8:30 3 6 mph 1013.9mb 73f 82f
8:24 3 6 mph 1014mb 73f 82f
8:18 1 2 mph 1014mb 73f 82f
8:12 2 5 mph 1014mb 73f 81f
8:06 3 6 mph 1014mb 72f 81f
8:00 5 6 mph 1014.1mb 72f 81f
7:54 5 7 mph 1014.1mb 72f 80f
7:48 5 7 mph 1014mb 72f 80f
7:42 1 6 mph 1014mb 72f 79f
7:36 5 7 mph 1014mb 72f 79f
7:30 5 6 mph 1013.9mb 72f 79f
7:24 1 3 mph 1013.8mb 72f 78f
7:18 2 6 mph 1013.8mb 72f 77f
7:12 3 6 mph 1013.8mb 72f 77f
7:06 1 6 mph 1013.7mb 72f 77f
7:00 1 6 mph 1013.7mb 72f 77f
6:54 5 6 mph 1013.6mb 71f 77f
6:48 5 7 mph 1013.6mb 71f 76f
6:42 5 7 mph 1013.5mb 71f 76f
6:36 5 7 mph 1013.4mb 71f 76f
6:30 5 7 mph 1013.4mb 71f 76f
6:24 7 9 mph 1013.4mb 71f 76f
6:18 7 8 mph 1013.3mb 71f 75f
6:12 7 8 mph 1013.2mb 71f 75f
6:06 3 6 mph 1013.1mb 71f 75f
6:00 3 5 mph 1013.1mb 71f 75f
5:54 3 5 mph 1013.1mb 71f 75f
5:48 3 7 mph 1013.1mb 71f 74f
5:42 3 5 mph 1013.1mb 71f 74f
5:36  -  2 mph 1013.1mb 71f 74f
5:30  -  2 mph 1013.1mb 71f 74f
5:24 1 3 mph 1013.1mb 71f 74f
5:18 1 3 mph 1013.3mb 71f 74f
5:12 2 3 mph 1013.2mb 72f 74f
5:06 2 5 mph 1013.2mb 72f 74f
5:00  -  2 mph 1013mb 72f 74f
4:54 1 2 mph 1013mb 72f 74f
4:48 2 6 mph - - -
4:42 3 5 mph 1013.4mb 72f 74f
4:36  -  1 mph 1013.3mb 72f 74f
4:30  -  0 mph 1013.1mb 72f 74f
4:24  -  0 mph 1013mb 72f 74f
4:18  -  1 mph 1013mb 72f 74f
4:12  -  1 mph 1013mb 72f 74f
4:06  -  2 mph 1013mb 72f 75f
4:00 1 2 mph 1013.3mb 72f 75f
3:54 1 3 mph 1013.3mb 72f 75f
3:48 2 3 mph - - -
3:42  -  2 mph 1013.2mb 72f 75f
3:36 1 3 mph 1013.2mb 72f 75f
3:30 2 5 mph 1013.2mb 72f 75f
3:24 3 5 mph 1013.3mb 72f 75f
3:18 1 3 mph 1013.4mb 72f 75f
3:12 2 3 mph 1013.3mb 72f 75f
3:06  -  2 mph 1013.3mb 72f 75f
3:00 1 2 mph 1013.4mb 72f 75f
2:54 2 2 mph 1013.3mb 72f 75f
2:48 2 3 mph 1013.4mb 72f 76f
2:42 1 3 mph 1013.4mb 72f 76f
2:36  -  2 mph 1013.4mb 73f 76f
2:30 1 3 mph 1013.3mb 73f 75f
2:24 1 2 mph 1013.3mb 74f 75f
2:18 2 2 mph - - -
2:12 2 5 mph 1013.4mb 74f 76f
2:06 2 5 mph 1013.5mb 74f 76f
2:00 2 3 mph 1013.6mb 74f 76f
1:54 1 5 mph 1013.7mb 74f 76f
1:48 3 5 mph 1013.7mb 74f 77f
1:42 3 5 mph 1013.7mb 74f 77f
1:36 1 3 mph 1013.7mb 74f 77f
1:30 1 3 mph 1013.7mb 75f 76f
1:24 1 2 mph 1013.9mb 75f 76f
1:18 2 2 mph 1013.8mb 75f 77f
1:12  -  5 mph 1013.8mb 75f 77f
1:06 5 5 mph 1013.8mb 74f 77f
1:00 3 5 mph 1013.8mb 74f 77f
12:54 5 6 mph 1013.8mb 74f 77f
12:48 3 6 mph - - -
12:42 2 5 mph 1013.9mb 74f 78f
12:36 3 6 mph 1014mb 74f 78f
12:30 5 6 mph 1014mb 74f 78f
12:24 5 7 mph 1014mb 74f 78f
12:18 3 6 mph 1014mb 74f 78f
12:12 5 6 mph 1014mb 74f 78f
12:06 2 5 mph 1014mb 74f 78f
12:00 3 5 mph 1013.8mb 74f 78f
Mi 07/19 11:54 2 6 mph 1013.8mb 74f 78f
11:48 2 3 mph 1013.9mb 75f 78f
11:42  -  5 mph 1013.9mb 75f 78f
11:36 3 7 mph 1014mb 74f 78f
11:30 3 7 mph 1013.9mb 74f 79f
11:24 6 7 mph 1013.9mb 74f 79f
11:18 5 6 mph - - -
11:12 6 7 mph 1014.1mb 74f 79f
11:06 5 7 mph 1014.1mb 74f 80f
11:00 6 7 mph 1014.2mb 74f 80f
10:54 3 6 mph 1014.1mb 74f 80f
10:48 3 7 mph 1014mb 74f 80f
10:42 5 7 mph 1014.1mb 74f 80f
10:36 6 8 mph 1014.1mb 74f 79f
10:30 6 9 mph 1014.1mb 74f 80f
10:24 5 8 mph 1014.1mb 74f 80f
10:18 6 7 mph 1014mb 74f 80f
10:12 6 9 mph 1014mb 74f 80f
10:06 6 9 mph 1014mb 74f 80f
10:00 8 10 mph 1014mb 74f 80f
9:54 7 9 mph 1014mb 74f 80f
9:48 7 10 mph 1013.9mb - -
9:42 7 9 mph 1013.9mb 74f 80f
9:36 6 10 mph 1013.9mb 74f 81f
9:30 8 13 mph 1013.9mb 74f 81f
9:24 8 13 mph 1013.8mb 74f 81f
9:18 6 9 mph 1013.7mb 74f 81f
9:12 9 13 mph 1013.7mb 74f 81f
9:06 8 13 mph 1013.6mb 74f 82f
9:00 10 14 mph 1013.6mb 74f 82f
8:54 8 13 mph 1013.4mb 74f 82f
8:48 7 11 mph 1013.3mb 74f 83f
8:42 10 15 mph 1013.2mb 73f 83f
8:36 6 13 mph 1013.1mb 73f 83f
8:30 9 14 mph 1013mb 73f 83f
8:24 9 14 mph 1013mb 73f 83f
8:18 10 14 mph 1012.9mb 73f 83f
8:12 9 14 mph 1012.9mb 73f 84f
8:06 9 13 mph 1013mb 73f 84f
8:00 8 14 mph 1013mb 73f 85f
7:54 8 11 mph 1013mb 73f 85f
7:48 9 14 mph 1013mb 73f 85f
7:42 7 10 mph 1013mb 73f 85f
7:36 8 10 mph 1013mb 73f 86f
7:30 8 15 mph 1012.9mb 73f 86f
7:24 10 15 mph 1012.8mb 73f 86f
7:18 11 16 mph 1012.8mb 73f 86f
7:12 8 15 mph 1012.7mb 73f 87f
7:06 13 15 mph 1012.6mb 73f 86f
7:00 13 17 mph 1012.6mb 73f 87f
6:54 9 16 mph 1012.6mb 73f 87f
6:48 11 15 mph 1012.5mb 73f 87f
6:42 9 15 mph 1012.5mb 73f 87f
6:36 10 16 mph 1012.4mb 73f 87f
6:30 10 17 mph 1012.4mb 73f 88f
6:24 8 13 mph 1012.4mb 73f 88f
6:18 13 20 mph 1012.5mb 73f 88f
6:12 11 16 mph 1012.5mb 72f 88f
6:06 13 17 mph 1012.5mb 72f 87f
6:00 9 17 mph 1012.5mb 72f 87f
5:54 8 17 mph 1012.5mb 72f 88f
5:48 16 20 mph 1012.5mb 72f 87f
5:42 14 20 mph 1012.5mb 72f 88f
5:36 10 21 mph 1012.4mb 72f 89f
5:30 15 21 mph 1012.4mb 72f 88f
5:24 15 20 mph 1012.4mb 72f 89f
5:18 9 20 mph 1012.4mb 72f 89f
5:12 11 18 mph 1012.4mb 72f 89f
5:06 14 23 mph 1012.4mb 72f 89f
5:00 11 20 mph 1012.5mb 72f 89f
4:54 15 21 mph 1012.5mb 72f 89f
4:48 14 20 mph 1012.5mb 72f 89f
4:42 15 21 mph 1012.6mb 72f 89f
4:36 11 21 mph 1012.6mb 72f 89f
4:30 14 24 mph 1012.6mb 72f 89f
4:24 13 23 mph 1012.6mb 72f 90f
4:18 17 22 mph 1012.7mb 72f 89f
4:12 10 20 mph 1012.7mb 72f 90f
4:06 14 21 mph 1012.6mb 72f 90f
4:00 13 18 mph 1012.8mb 72f 91f
3:54 13 18 mph 1012.8mb 72f 90f
3:48 11 18 mph 1012.8mb 72f 91f
3:42 11 18 mph 1012.8mb 72f 91f
3:36 10 16 mph 1012.9mb 72f 90f
3:30 10 20 mph 1013mb 72f 90f
3:24 10 17 mph 1013mb 71f 90f
3:18 10 22 mph 1013mb 71f 90f
3:12 13 20 mph 1013mb 71f 90f
3:06 14 20 mph 1013mb 71f 90f
3:00 10 15 mph 1013.1mb 71f 90f
2:54 11 17 mph 1013.1mb 71f 90f
2:48 13 17 mph 1013.1mb 71f 90f
2:42 14 18 mph 1013.2mb 71f 90f
2:36 13 18 mph 1013.3mb 71f 89f
2:30 14 17 mph 1013.3mb 71f 89f
2:24 14 17 mph 1013.3mb 71f 89f
2:18 13 18 mph 1013.5mb 71f 89f
2:12 10 15 mph 1013.6mb 71f 90f
2:06 10 17 mph 1013.6mb 71f 89f
2:00 6 13 mph 1013.7mb 71f 85f
1:54 7 10 mph 1013.8mb 71f 86f
1:48 10 14 mph 1013.8mb 71f 89f
1:42 15 18 mph 1013.9mb 71f 83f
1:36 14 18 mph 1013.9mb 71f 83f
1:30 17 21 mph 1013.9mb 72f 83f
1:24 16 20 mph 1014.1mb 72f 83f
1:18 16 21 mph 1014.2mb 72f 83f
1:12 16 20 mph 1014.3mb 72f 82f
1:06 11 15 mph 1014.4mb 72f 82f
1:00 14 18 mph 1014.5mb 72f 82f
12:54 11 14 mph 1014.5mb 72f 82f
12:48 11 14 mph 1014.6mb 72f 82f
12:42 13 15 mph 1014.7mb 72f 82f
12:36 10 14 mph 1014.8mb 72f 82f
12:30 13 14 mph 1014.9mb 72f 82f
12:24 15 17 mph 1015mb 72f 82f
12:18 9 10 mph 1015mb 72f 83f
12:12 9 11 mph 1015.1mb 72f 82f
12:06 10 11 mph 1015.1mb 72f 82f
12:00 10 11 mph 1015.2mb 73f 82f
11:54 8 10 mph 1015.3mb 73f 82f
11:48 8 9 mph 1015.4mb 73f 81f
11:42 8 10 mph 1015.4mb 73f 81f
11:36 10 11 mph 1015.5mb 73f 80f
11:30 6 8 mph 1015.6mb 73f 81f
11:24 5 6 mph 1015.6mb 73f 81f
11:18 5 8 mph 1015.7mb 73f 83f
11:12 7 9 mph 1015.7mb 73f 83f
11:06 5 8 mph 1015.8mb 73f 83f
11:00 3 9 mph 1015.9mb 73f 82f
10:54 8 10 mph 1016mb 73f 81f
10:48 8 9 mph 1016mb 73f 81f
10:42 3 8 mph 1016mb 73f 81f
10:36 6 7 mph 1016mb 73f 79f
10:30 5 8 mph 1016mb 73f 78f
10:24 6 8 mph 1016mb 73f 78f
10:18 5 7 mph 1016mb 73f 78f
10:12 5 7 mph 1016mb 73f 80f
10:06 6 9 mph 1016mb 73f 80f
10:00 7 8 mph 1016.1mb 73f 79f
9:54 7 10 mph 1016.1mb 73f 79f
9:48 6 9 mph 1016.2mb 74f 78f
9:42 6 9 mph 1016.2mb 74f 78f
9:36 8 9 mph 1016.2mb 74f 78f
9:30 6 8 mph 1016.3mb 74f 77f
9:24 5 7 mph 1016.3mb 74f 77f
9:18 6 8 mph 1016.3mb 74f 77f
9:12 6 8 mph 1016.4mb 74f 77f
9:06 5 8 mph 1016.4mb 74f 77f
9:00 3 8 mph 1016.4mb 74f 76f
8:54 3 8 mph 1016.4mb 74f 76f
8:48 5 6 mph 1016.5mb 74f 76f
8:42 5 6 mph 1016.5mb 74f 76f
8:36 3 6 mph 1016.5mb 74f 76f
8:30 2 7 mph 1016.5mb 74f 76f
8:24 6 8 mph 1016.5mb 73f 76f
8:18 6 8 mph 1016.5mb 73f 76f
8:12 6 9 mph 1016.6mb 73f 76f
8:06 8 9 mph 1016.6mb 73f 76f
8:00 7 9 mph 1016.6mb 73f 76f
7:54 6 8 mph 1016.6mb 73f 75f
7:48 6 8 mph 1016.6mb 73f 75f
7:42 5 8 mph 1016.5mb 73f 75f
7:36 5 8 mph 1016.6mb 73f 75f
7:30 7 8 mph 1016.6mb 73f 75f
7:24 7 8 mph 1016.5mb 73f 75f
7:18 5 7 mph 1016.5mb 73f 75f
7:12 3 6 mph 1016.5mb 73f 75f
7:06 3 7 mph 1016.5mb 73f 74f
7:00 6 7 mph 1016.5mb 73f 74f
6:54 5 6 mph 1016.5mb 73f 74f
6:48 5 7 mph 1016.5mb 73f 74f
6:42 6 7 mph 1016.6mb 73f 74f
6:36 5 7 mph 1016.5mb 73f 74f
6:30 3 5 mph 1016.5mb 73f 74f
6:24 5 7 mph 1016.4mb 73f 74f
6:18  -  8 mph 1016.6mb 73f 74f
6:12 5 8 mph 1016.5mb 73f 74f
6:06 7 8 mph 1016.5mb 72f 74f
6:00 7 9 mph 1016.6mb 72f 74f
5:54 7 8 mph 1016.4mb 72f 74f
5:48 3 7 mph - - -
5:42 6 7 mph 1016.6mb 72f 74f
5:36 5 7 mph 1016.6mb 72f 74f
5:30 6 7 mph 1016.5mb 72f 74f
5:24 5 7 mph 1016.5mb 72f 74f
5:18 3 5 mph 1016.6mb 72f 74f
5:12 3 5 mph 1016.6mb 72f 74f
5:06 5 6 mph 1016.6mb 72f 74f
5:00 3 7 mph 1016.6mb 72f 74f
4:54 3 5 mph 1016.5mb 72f 74f
4:48 2 5 mph 1016.5mb 72f 74f
4:42 3 6 mph 1016.5mb 72f 74f
4:36 6 8 mph 1016.5mb 72f 74f
4:30 6 8 mph 1016.5mb 72f 74f
4:24 3 7 mph 1016.5mb 72f 74f
4:18 6 8 mph - - -
4:12 7 9 mph 1016.4mb 72f 74f
4:06 6 8 mph 1016.4mb 72f 74f
4:00 3 6 mph 1016.4mb 72f 74f
3:54 3 7 mph 1016.4mb 72f 74f
3:48 5 7 mph 1016.3mb 72f 74f
3:42 2 6 mph 1016.3mb 72f 74f
3:36 3 6 mph 1016.3mb 72f 74f
3:30 5 7 mph 1016.3mb 72f 74f
3:24 6 8 mph 1016.3mb 72f 74f
3:18 5 7 mph 1016.5mb 72f 74f
3:12 2 5 mph 1016.5mb 72f 74f
3:06 2 6 mph 1016.5mb 72f 74f
3:00 3 8 mph 1016.5mb 72f 74f
2:54 5 8 mph 1016.5mb 72f 74f
2:48 5 7 mph 1016.5mb 72f 74f
2:42 6 7 mph 1016.6mb 72f -
2:36 6 8 mph 1016.7mb 72f -
2:30 6 11 mph 1016.7mb 72f 74f
2:24 6 10 mph 1016.7mb 72f 74f
2:18 6 10 mph 1016.8mb 72f 74f
2:12 5 8 mph 1016.8mb 72f 74f
2:06 6 9 mph 1016.8mb 72f 74f
2:00 6 11 mph 1016.8mb 72f 74f
1:54 8 10 mph 1016.8mb 72f 74f
1:48 7 9 mph - - -
1:42 6 8 mph - - -
1:36 5 7 mph - - -
1:30 6 6 mph 1017.1mb 73f 74f
1:24 5 6 mph 1017.3mb 73f 74f
1:18 5 6 mph 1017.3mb 74f 74f
1:12 3 5 mph 1017.3mb 74f 74f
1:06 2 5 mph 1017.4mb 74f 74f
1:00 3 6 mph 1017.5mb 74f 74f
12:54 2 7 mph 1017.5mb 74f 74f
12:48 7 8 mph 1017.6mb 74f 74f
12:42 6 8 mph 1017.5mb 74f 74f
12:36 5 9 mph 1017.5mb 74f 74f
12:30 7 10 mph 1017.4mb 74f 75f
12:24 5 6 mph 1017.4mb 74f 75f
12:18 6 9 mph 1017.4mb 74f 75f
12:12 5 8 mph 1017.4mb 74f 75f
12:06 3 5 mph 1017.6mb 74f 75f
12:00  -  5 mph 1017.6mb 74f 75f
Di 07/18 11:54 3 6 mph 1017.6mb 74f 75f
11:48 5 7 mph 1017.6mb - -
11:42 5 9 mph 1017.6mb 74f 75f
11:36 6 9 mph 1017.6mb 74f 75f
11:30 6 9 mph 1017.6mb 74f 75f
11:24 6 9 mph 1017.6mb 74f 75f
11:18 5 8 mph 1017.7mb 75f 75f
11:12 7 9 mph 1017.7mb 75f 75f
11:06 7 9 mph 1017.8mb 75f 75f
11:00 6 8 mph 1017.7mb 75f 75f
10:54 7 8 mph 1017.7mb 75f 75f
10:48 5 10 mph 1017.9mb 75f 76f
10:42 6 7 mph 1017.8mb 75f 75f
10:36 3 6 mph 1017.8mb 75f 75f
10:30 2 7 mph 1017.6mb 75f 75f
10:24 5 8 mph 1017.6mb 75f 76f
10:18 6 8 mph 1017.6mb - -
10:12 7 8 mph 1017.6mb 75f 76f
10:06 5 6 mph 1017.6mb 75f 76f
10:00 3 6 mph 1017.8mb 75f 76f
9:54 3 7 mph 1017.8mb 75f 76f
9:48 6 7 mph 1017.8mb - -
9:42 6 8 mph 1017.8mb 75f 76f
9:36 6 9 mph 1017.6mb 75f 76f
9:30 6 7 mph 1017.4mb 75f 77f
9:24 6 9 mph 1017.4mb 75f 77f
9:18 7 10 mph 1017.5mb 75f 77f
9:12 7 14 mph 1017.6mb 75f 77f
9:06 7 14 mph 1017.5mb 75f 77f
9:00 5 7 mph 1017.5mb 75f 77f
8:54 3 7 mph 1017.6mb 75f 77f
8:48 6 9 mph 1017.5mb 75f 77f
8:42 7 10 mph 1017.3mb 75f 77f
8:36 6 8 mph 1017.1mb 75f 77f
8:30 6 8 mph 1017.1mb 76f 77f
8:24 3 8 mph 1017.1mb 76f 77f
8:18 3 8 mph 1017.1mb - -
8:12 5 9 mph 1017.1mb 76f 77f
8:06 6 9 mph 1016.9mb 76f 77f
8:00 5 11 mph 1016.7mb 76f 77f
7:54 8 13 mph 1016.7mb 76f 77f
7:48 8 13 mph 1016.7mb 76f 77f
7:42 8 11 mph 1016.7mb 76f 77f
7:36 8 10 mph 1016.7mb 76f 77f
7:30 7 9 mph 1016.7mb 76f 76f
7:24 6 10 mph 1016.8mb 76f 76f
7:18 7 13 mph 1016.8mb 76f 76f
7:12 10 15 mph 1016.7mb 76f 76f
7:06 13 15 mph 1016.6mb 76f 76f
7:00 13 16 mph 1016.8mb 76f 76f
6:54 13 18 mph 1016.9mb 76f 76f
6:48 13 20 mph 1016.8mb - -
6:42 15 18 mph 1017.2mb 76f 77f
6:36 7 13 mph 1017.3mb 76f 78f
6:30 8 11 mph 1017.2mb 76f 78f
6:24 7 10 mph 1017.2mb 75f 78f
6:18 9 13 mph 1017mb 75f 77f
6:12 11 15 mph 1017mb 75f 77f
6:06 14 16 mph 1016.9mb 75f 77f
6:00 13 16 mph 1017mb 75f 77f
5:54 13 15 mph 1017mb 75f 77f
5:48 10 13 mph 1016.7mb 75f 77f
5:42 8 10 mph 1016.7mb 75f 77f
5:36 7 9 mph 1016.8mb 75f 77f
5:30 2 11 mph 1016.9mb 75f 77f
5:24 7 16 mph 1017mb 75f 79f
5:18 15 20 mph 1016.4mb 75f 78f
5:12 15 20 mph 1016.4mb 75f 78f
5:06 16 20 mph 1016.6mb 75f 78f
5:00 15 20 mph 1016.6mb 75f 78f
4:54 17 21 mph 1016.4mb 75f 78f
4:48 16 22 mph 1016.4mb 75f 78f
4:42 20 22 mph 1016.4mb 74f 78f
4:36 20 24 mph 1016.3mb 74f 78f
4:30 20 24 mph 1016.3mb 74f 78f
4:24 18 24 mph 1016.6mb 74f 78f
4:18 20 24 mph 1016.6mb 74f 78f
4:12 21 24 mph 1016.4mb 74f 78f
4:06 18 24 mph 1016.5mb 73f 78f
4:00 21 24 mph 1016.5mb 72f 78f
3:54 21 25 mph 1016.5mb 72f 78f
3:48 20 23 mph 1016.6mb 72f 79f
3:42 18 24 mph 1016.7mb 72f 79f
3:36 17 23 mph 1016.7mb 71f 80f
3:30 18 23 mph 1016.7mb 71f 79f
3:24 16 21 mph 1016.8mb 71f 80f
3:18 18 23 mph 1016.8mb 71f 80f
3:12 16 21 mph 1016.8mb 71f 81f
3:06 17 23 mph 1016.8mb 71f 80f
3:00 22 25 mph 1016.8mb 71f 79f
2:54 16 21 mph 1016.9mb 71f 80f
2:48 17 21 mph 1017.1mb 71f 80f
2:42 18 20 mph 1017.3mb 71f 79f
2:36 15 21 mph 1017.3mb 71f 79f
2:30 18 21 mph 1017.4mb 71f 79f
2:24 17 22 mph 1017.4mb 71f 79f
2:18 17 22 mph 1017.4mb 71f 79f
2:12 16 20 mph 1017.4mb 71f 79f
2:06 16 22 mph 1017.4mb 71f 79f
2:00 17 21 mph 1017.5mb 71f 79f
1:54 15 21 mph 1017.6mb 71f 79f
1:48 17 20 mph 1017.6mb 71f 79f
1:42 18 21 mph 1017.7mb 71f 79f
1:36 17 20 mph 1017.8mb 71f 79f
1:30 14 17 mph 1017.8mb 71f 79f
1:24 13 17 mph 1017.9mb 71f 79f
1:18 16 18 mph 1017.9mb 71f 79f
1:12 14 17 mph 1018mb 71f 79f
1:06 15 20 mph 1018.1mb 71f 79f